Location: Newark
(13.8117°N, 3.6025°W)
Time: 18:20:24
(UTC+00:00)

Explorer 11/Cluster Stage 4 - Pass Details

Date: 03 September 2019
Orbit: 467 x 1259 km, 28.8° (Epoch: 13 October)

Event Time Altitude Azimuth Distance (km) Brightness Sun altitude
Rises 13:00:03 0° 289° (WNW) 4,046 10.3 77.0°
Reaches altitude 10° 13:02:54 10° 285° (WNW) 3,148 10.0 76.4°
Maximum altitude 13:10:42 52° 211° (SSW) 1,515 9.4 74.7°
Drops below altitude 10° 13:18:34 10° 137° (SE) 3,167 9.7 72.9°
Sets 13:21:27 0° 132° (SE) 4,072 10.2 72.3°
